This demonstration page uses our WeatherBlox Daily Observations layout. Learn more.

39.29038, -76.61219

Hourly Observations for July 21, 2017

Temp ( °F °C ) Dew Point ( °F °C ) Humidity (%) Winds ( mph kmh ) Pressure ( in mb ) Visibility ( mi km ) Precip ( " mm )
12:54 am 00:54 undefined 89 31.7 72 22.2 57 57 undefined N/A 29.91 1013 N/A 0 0
1:54 am 01:54 undefined 87 30.6 71 21.7 59 59 undefined N/A 29.88 1012 N/A 0 0
2:54 am 02:54 undefined 86 30 69 20.6 57 57 undefined N/A 29.88 1012 N/A 0 0
3:54 am 03:54 undefined 85 29.4 69 20.6 59 59 undefined N/A 29.88 1012 N/A 0 0
4:54 am 04:54 undefined 83 28.3 70 21.1 65 65 undefined N/A 29.88 1012 N/A 0 0
5:54 am 05:54 undefined 83 28.3 70 21.1 65 65 undefined N/A 29.88 1012 N/A 0 0
6:54 am 06:54 undefined 84 28.9 70 21.1 63 63 undefined N/A 29.91 1013 N/A 0 0
7:54 am 07:54 undefined 86 30 71 21.7 61 61 undefined N/A 29.94 1014 N/A 0 0
8:54 am 08:54 undefined 88 31.1 71 21.7 57 57 undefined N/A 29.94 1014 N/A 0 0
9:54 am 09:54 undefined 89 31.7 68 20 50 50 undefined N/A 29.94 1014 N/A 0 0
10:54 am 10:54 undefined 91 32.8 69 20.6 49 49 undefined N/A 29.91 1013 N/A 0 0
11:54 am 11:54 undefined 92 33.3 68 20 46 46 undefined N/A 29.91 1013 N/A 0 0
12:54 pm 12:54 undefined 93 33.9 70 21.1 47 47 undefined N/A 29.91 1013 N/A 0 0
1:54 pm 13:54 undefined 92 33.3 71 21.7 51 51 undefined N/A 29.91 1013 N/A 0 0
2:54 pm 14:54 undefined 92 33.3 71 21.7 51 51 undefined N/A 29.91 1013 N/A 0 0
3:54 pm 15:54 undefined 92 33.3 71 21.7 51 51 undefined N/A 29.88 1012 N/A 0 0
4:54 pm 16:54 undefined 92 33.3 71 21.7 51 51 undefined N/A 29.88 1012 N/A 0 0
5:54 pm 17:54 undefined 91 32.8 71 21.7 52 52 undefined N/A 29.85 1011 N/A 0 0
6:54 pm 18:54 undefined 90 32.2 71 21.7 54 54 undefined N/A 29.85 1011 N/A 0 0
7:54 pm 19:54 undefined 90 32.2 72 22.2 56 56 undefined N/A 29.85 1011 N/A 0 0
8:54 pm 20:54 undefined 89 31.7 71 21.7 55 55 undefined N/A 29.85 1011 N/A 0 0
9:54 pm 21:54 undefined 90 32.2 72 22.2 56 56 undefined N/A 29.88 1012 N/A 0 0
10:54 pm 22:54 undefined 89 31.7 72 22.2 57 57 undefined N/A 29.88 1012 N/A 0 0
11:54 pm 23:54 undefined 87 30.6 73 22.8 63 63 undefined N/A 29.88 1012 N/A 0 0

Powered by AerisWeather